Regional Weather Roundup
Issued by NWS

Home | Current Version | Previous Version | Graphics & Text | Print | Product List | Glossary On
Versions: 1 2 3 4 5 6 7 8 9 10 11 12 13 14 15 16 17 18 19 20 21 22 23 24 25 26 27 28 29 30 31 32 33 34 35 36 37 38 39 40 41 42 43 44 45 46 47 48 49 50
243
ASUS43 KLSX 190807
RWRMO

WEATHER SUMMARY FOR MISSOURI
NATIONAL WEATHER SERVICE SPRINGFIELD MO
300 AM CDT SAT AUG 19 2017

NOTE: "FAIR" INDICATES FEW OR NO CLOUDS BELOW 12,000 FEET WITH NO
       SIGNIFICANT WEATHER AND/OR OBSTRUCTIONS TO VISIBILITY.
       CURRENT SKY AND/OR WEATHER CONDITIONS ARE NOT AVAILABLE FOR
       CHILLICOTHE AND FARMINGTON.

MOZ001>031-035>038-043-044-053-054-190900-
...NORTHERN AND WESTERN MISSOURI...

CITY           SKY/WX    TMP DP  RH WIND       PRES   REMARKS
KANSAS CTY INT CLEAR     67  66  97 CALM      29.93S FOG
KANSAS C DTWN  CLEAR     72  69  90 CALM      29.91S
LEE`S SUMMIT   CLEAR     73  70  90 SW5       29.93S
ST JOSEPH      FOG       61  61 100 CALM      29.93S VSB 1/4
CHILLICOTHE      N/A     65  65 100 CALM      29.93S
KIRKSVILLE     CLOUDY    65  64  97 CALM      29.93S FOG

$$
MOZ066>068-077>081-088>096-101>105-190900-
...SOUTHWEST MISSOURI...

CITY           SKY/WX    TMP DP  RH WIND       PRES   REMARKS
SPRINGFIELD    CLEAR     68  67  96 S7        29.98F
JOPLIN         CLEAR     71  70  96 S5        29.97F
BRANSON        MOCLDY    66  66 100 CALM      30.01S

$$
MOZ032>034-039>042-045>050-055>058-069>072-190900-
...CENTRAL MISSOURI...

CITY           SKY/WX    TMP DP  RH WIND       PRES   REMARKS
COLUMBIA       CLEAR     68  64  87 SW7       29.93S
JEFFERSON CITY PTCLDY    71  68  90 CALM      29.92F
ROLLA          PTCLDY    68  66  93 SW9       29.96F
SEDALIA        CLEAR     70  70 100 S8        29.94F
WHITEMAN AFB   CLEAR     69  69 100 SW8       29.92F
WARRENSBURG    CLEAR     70  64  83 S7        29.92F
OSAGE BEACH    CLEAR     69  68  96 S3        29.96S

$$
MOZ051-052-059>065-190900-
...EAST CENTRAL MISSOURI...

CITY           SKY/WX    TMP DP  RH WIND       PRES   REMARKS
ST LOUIS INTL  PTCLDY    75  68  78 SW5       29.92S
SPIRIT OF STL  PTCLDY    70  69  97 CALM      29.91S
ST CHARLES     CLEAR     70  67  90 CALM      29.90S

$$
MOZ072>076-082>087-097>100-106>115-190900-
...SOUTH CENTRAL AND SOUTHEAST MISSOURI...

CITY           SKY/WX    TMP DP  RH WIND       PRES   REMARKS
CAPE GIRARDEAU CLEAR     68  66  93 CALM      29.92S
FARMINGTON     CLOUDY    70  67  90 CALM      29.95F
POPLAR BLUFF   CLEAR     70  69  97 CALM      29.93S
WEST PLAINS    PTCLDY    70  68  93 SW6       30.00F

$$



USA.gov is the U.S. government's official web portal to all federal, state and local government web resources and services.